Location: Pitton
(51.0667°N, 1.7000°W)
Time: 19:23:45
(UTC+00:00)

Meteor 2-15 Rocket - Pass Details

Date: 17 September 2019
Orbit: 939 x 956 km, 82.5° (Epoch: 19 October)

Event Time Altitude Azimuth Distance (km) Brightness Sun altitude
Rises 19:09:36 0° 178° (S) 3,616 7.3 -8.9°
Reaches altitude 10° 19:12:06 10° 175° (S) 2,677 6.6 -9.3°
Maximum altitude 19:18:09 66° 95° (E) 1,044 4.4 -10.2°
Drops below altitude 10° 19:24:15 10° 15° (NNE) 2,699 6.9 -11.2°
Sets 19:26:47 0° 13° (NNE) 3,649 7.6 -11.5°
